[[{"header":{"parameterUnit":"m.s-1","parameterCategory":1,"la1":30.2991,"la2":30.254,"lo1":-89.0895,"lo2":-89.0444,"dy":0.0017,"dx":0.0017,"nx":28,"ny":28,"refTime":"2023-10-15T21:00:00:Z","depth":0,"parameterNumber":2,"parameterNumberName":"U-component_of_WINDS"},"data":[0,0,0,0,0,0,0,0,0,0,0,0,0,0,0,0,0,0,0,0,0,0,0,0,0,0,0,0,0,0,0,0,0,0,0,0,0,0,0,0,0,0,0,0,0,0,0,0,0,0,0,0,0,0,0,0,0,0,1.8946,1.8946,0,1.894,1.894,1.894,1.891,1.8909,1.8909,1.8908,1.8901,1.8902,1.8902,0,0,0,0,0,0,0,0,0,0,0,0,0,1.8933,1.8934,1.8946,1.8946,1.8946,1.894,1.894,1.894,1.891,1.8909,1.8909,1.8908,1.8901,1.8901,1.8902,0,0,0,0,0,0,0,0,0,0,0,0,0,1.8934,1.8934,1.8946,1.8931,1.8929,1.894,1.894,1.894,1.891,1.8909,1.8908,1.8907,1.8901,1.8901,1.8902,1.8927,0,0,1.8904,1.8905,0,0,0,0,0,0,0,0,1.8934,1.8935,1.8933,1.8932,1.893,1.8925,1.8933,1.8936,1.8911,1.8917,1.8908,1.8907,1.891,1.891,1.8911,1.8927,1.8927,1.8904,1.8905,1.8905,1.8905,0,0,0,0,0,0,0,1.8934,1.8935,1.8944,1.8933,1.8931,1.8924,1.8923,1.8933,1.892,1.8917,1.8915,1.8914,1.8909,1.891,1.891,1.8927,1.8904,1.8905,1.8905,1.8906,1.8965,1.8966,0,0,0,0,0,0,1.8936,1.8935,1.8944,1.8944,1.893,1.8925,1.8924,1.8928,1.8919,1.8917,1.8915,1.8913,1.8909,1.891,1.891,1.894,1.8905,1.8906,1.8906,1.8964,1.8965,1.8967,0,0,0,0,0,0,1.8936,1.8937,1.8944,1.8939,1.8939,1.8927,1.8931,1.8928,1.8929,1.8918,1.8916,1.8919,1.8909,1.8909,1.8924,1.8939,1.8906,1.8907,1.8963,1.8965,1.8966,1.8999,0,0,0,0,0,0,1.8936,1.8938,1.8947,1.8939,1.8939,1.8958,1.8932,1.8929,1.8931,1.8928,1.8921,1.8919,1.8908,1.8923,1.8924,1.8939,1.8907,1.8961,1.8964,1.8966,1.8997,1.9002,1.9006,0,0,0,0,0,1.8936,1.8956,1.8947,1.8948,1.8951,1.8959,1.8959,1.8946,1.8932,1.8941,1.8935,1.8919,1.8938,1.8925,1.8926,1.8942,1.896,1.8963,1.8965,1.8994,1.9001,1.9006,0,0,0,0,0,0,1.8964,1.8954,1.8945,1.8963,1.8962,1.8954,1.8964,1.8953,1.8955,1.8952,1.8936,1.8935,1.8952,1.8948,1.8934,1.8967,1.8946,1.8949,1.8968,1.8974,1.8979,1.8979,1.8908,0,0,0,0,0,1.8973,1.898,1.8971,1.8988,1.8988,1.8977,1.898,1.897,1.8968,1.8967,1.8962,1.8961,1.8966,1.897,1.8974,1.8997,1.8995,1.9008,1.9013,1.9017,1.9019,1.9032,1.9038,1.8975,1.8975,1.8975,0,0,1.899,1.8986,1.8991,1.8994,1.8992,1.9,1.8976,1.8986,1.8992,1.8969,1.8982,1.8979,1.8976,1.8995,1.9003,1.8993,1.9037,1.902,1.9024,1.9024,1.9035,1.9041,1.9047,1.8977,1.8977,1.8977,0,0,1.9026,1.9024,1.9038,1.9037,1.9035,1.9027,1.9031,1.9025,1.9022,1.9035,1.9019,1.9026,1.9036,1.9035,1.9036,1.9075,1.9061,1.9077,1.9102,1.9114,1.9119,1.9123,1.9138,1.9143,1.908,1.908,1.908,0,1.9048,1.906,1.9047,1.9058,1.906,1.904,1.9055,1.9055,1.9054,1.9056,1.9045,1.9058,1.9055,1.9074,1.9084,1.9085,1.9089,1.9077,1.912,1.9124,1.9128,1.9141,1.9146,1.9082,1.9082,1.9082,1.9081,0,1.9087,1.9095,1.9107,1.9108,1.9112,1.9124,1.9114,1.9119,1.911,1.9104,1.9119,1.9116,1.912,1.9124,1.9114,1.9142,1.9136,1.9123,1.9102,1.9136,1.9148,1.9153,1.9085,1.9084,1.9083,1.9083,0,0,1.9138,1.9133,1.9138,1.9139,1.9136,1.9142,1.9156,1.916,1.9165,1.9166,1.9177,1.9187,1.9175,1.9176,1.9167,1.9178,1.921,1.9163,1.9163,1.9172,1.9241,1.9251,1.9257,1.9202,1.9203,1.9203,1.9241,0,1.9172,1.9193,1.9183,1.9206,1.9214,1.9197,1.9209,1.9209,1.9205,1.9211,1.9207,1.9214,1.9198,1.9199,1.9209,1.9204,1.9223,1.9201,1.9211,1.9212,1.9211,1.9263,1.9272,1.9308,1.9246,1.9247,1.9247,0,1.9214,1.9218,1.9242,1.9239,1.9242,1.9253,1.9257,1.9264,1.9264,1.926,1.9263,1.9252,1.9265,1.9246,1.9264,1.9249,1.9253,1.9252,1.9253,1.9253,1.9231,1.9263,1.9319,1.9324,1.9255,1.9254,1.9253,0,1.925,1.9261,1.9276,1.9278,1.9275,1.9283,1.9282,1.9282,1.9286,1.929,1.9292,1.9298,1.9301,1.9306,1.9297,1.9284,1.9317,1.9297,1.9314,1.9314,1.932,1.932,1.9377,1.9325,1.9325,1.9324,1.9324,0,1.9288,1.9303,1.9292,1.9302,1.9319,1.9308,1.9325,1.9323,1.9323,1.9332,1.9319,1.9328,1.9316,1.9324,1.9318,1.9334,1.9336,1.9333,1.9331,1.9334,1.9334,1.9335,1.9332,1.9326,1.9326,1.9325,1.9325,0,1.9329,1.9323,1.9339,1.9336,1.9336,1.9348,1.9346,1.9355,1.9351,1.9363,1.9365,1.9359,1.9368,1.936,1.9369,1.9365,1.9387,1.9382,1.9387,1.9385,1.9403,1.9401,1.9462,1.947,1.9413,1.9413,1.9414,0,1.9354,1.9365,1.9364,1.937,1.937,1.9379,1.9384,1.9374,1.938,1.9382,1.9391,1.94,1.9406,1.9422,1.9418,1.9425,1.9419,1.944,1.942,1.9423,1.942,1.9419,1.942,1.9444,1.9445,1.9445,1.9446,0,1.9398,1.9395,1.9402,1.9408,1.9414,1.9419,1.9422,1.9428,1.9418,1.9425,1.9435,1.944,1.945,1.9459,1.9465,1.9465,1.9454,1.9453,1.9457,1.9459,1.9462,1.9461,1.9397,1.9451,1.945,1.945,1.9449,1.9449,1.9431,1.9441,1.9443,1.9451,1.9453,1.9458,1.9466,1.9464,1.9472,1.948,1.9474,1.9486,1.9488,1.9496,1.9497,1.9507,1.9498,1.9504,1.9506,1.9507,1.951,1.9461,1.9508,1.9508,1.9508,1.9507,1.9507,0,1.9475,1.9476,1.9484,1.949,1.9497,1.9488,1.9492,1.9498,1.9509,1.9512,1.9519,1.9531,1.954,1.9538,1.9546,1.9555,1.955,1.9557,1.9556,1.9556,1.9517,1.9512,1.9561,1.9561,1.9561,1.9561,1.9561,1.9561,1.9498,1.9515,1.9512,1.953,1.953,1.9542,1.9545,1.955,1.9552,1.9566,1.9574,1.9573,1.9574,1.9583,1.9592,1.9591,1.9594,1.9603,1.9601,1.9564,1.9559,1.9554,1.9549,1.9604,1.9604,1.9639,1.9639,1.9639]},{"header":{"parameterUnit":"m.s-1","parameterCategory":1,"la1":30.2991,"la2":30.254,"lo1":-89.0895,"lo2":-89.0444,"dy":0.0017,"dx":0.0017,"nx":28,"ny":28,"refTime":"2023-10-15T21:00:00:Z","depth":0,"parameterNumber":3,"parameterNumberName":"V-component_of_WINDS"},"data":[0,0,0,0,0,0,0,0,0,0,0,0,0,0,0,0,0,0,0,0,0,0,0,0,0,0,0,0,0,0,0,0,0,0,0,0,0,0,0,0,0,0,0,0,0,0,0,0,0,0,0,0,0,0,0,0,0,0,-7.6412,-7.6414,0,-7.6584,-7.6586,-7.6588,-7.6484,-7.6479,-7.6474,-7.6469,-7.6639,-7.6648,-7.6657,0,0,0,0,0,0,0,0,0,0,0,0,0,-7.5988,-7.5996,-7.6412,-7.6414,-7.6416,-7.6584,-7.6586,-7.6588,-7.6484,-7.6478,-7.6472,-7.6467,-7.6636,-7.6647,-7.6658,0,0,0,0,0,0,0,0,0,0,0,0,0,-7.6167,-7.5999,-7.6412,-7.6385,-7.6384,-7.6583,-7.6586,-7.6589,-7.6486,-7.6478,-7.6471,-7.6464,-7.6632,-7.6646,-7.6659,-7.6892,0,0,-7.6701,-7.6707,0,0,0,0,0,0,0,0,-7.6157,-7.6183,-7.6387,-7.6387,-7.6387,-7.6505,-7.6499,-7.6691,-7.6488,-7.6447,-7.6469,-7.646,-7.66,-7.6616,-7.6664,-7.69,-7.6908,-7.6702,-7.6711,-7.6716,-7.672,0,0,0,0,0,0,0,-7.6145,-7.6175,-7.648,-7.639,-7.639,-7.6362,-7.6379,-7.6535,-7.6563,-7.645,-7.6443,-7.6465,-7.6598,-7.6651,-7.6667,-7.691,-7.6702,-7.6714,-7.6722,-7.6728,-7.7346,-7.7354,0,0,0,0,0,0,-7.6135,-7.6165,-7.6474,-7.6485,-7.6251,-7.6376,-7.6395,-7.6474,-7.6561,-7.6567,-7.6471,-7.6459,-7.6631,-7.6651,-7.6673,-7.6952,-7.6716,-7.6729,-7.6737,-7.7338,-7.7348,-7.7357,0,0,0,0,0,0,-7.6126,-7.6164,-7.6467,-7.6323,-7.636,-7.6391,-7.6481,-7.6482,-7.6534,-7.6577,-7.6581,-7.652,-7.6626,-7.6654,-7.6839,-7.6956,-7.6735,-7.6748,-7.7328,-7.7341,-7.7352,-7.7512,0,0,0,0,0,0,-7.6115,-7.6161,-7.6252,-7.6326,-7.6368,-7.6633,-7.6488,-7.649,-7.6559,-7.6545,-7.6624,-7.663,-7.6623,-7.6819,-7.6853,-7.6971,-7.6758,-7.7318,-7.7334,-7.7348,-7.7497,-7.7529,-7.7556,0,0,0,0,0,-7.61,-7.6289,-7.6257,-7.6295,-7.6482,-7.664,-7.6664,-7.6653,-7.6569,-7.6659,-7.6686,-7.6627,-7.6938,-7.6839,-7.6876,-7.7,-7.731,-7.7329,-7.7347,-7.7483,-7.7522,-7.7555,0,0,0,0,0,0,-7.6225,-7.6298,-7.6263,-7.6482,-7.6556,-7.6622,-7.6736,-7.6695,-7.6792,-7.6775,-7.6756,-7.6775,-7.6969,-7.7002,-7.6891,-7.7231,-7.7111,-7.7137,-7.7202,-7.7239,-7.7268,-7.7256,-7.677,0,0,0,0,0,-7.6278,-7.6403,-7.6459,-7.6646,-7.6685,-7.6705,-7.6773,-7.6759,-7.6833,-7.6864,-7.6904,-7.6977,-7.7091,-7.7167,-7.7274,-7.7501,-7.7516,-7.7604,-7.7634,-7.7658,-7.7681,-7.7804,-7.7844,-7.7417,-7.7417,-7.7417,0,0,-7.6389,-7.6444,-7.6524,-7.6673,-7.6728,-7.6856,-7.6731,-7.6871,-7.6965,-7.6884,-7.7063,-7.7095,-7.7175,-7.7383,-7.7476,-7.7417,-7.7803,-7.7682,-7.77,-7.7711,-7.7827,-7.7867,-7.7903,-7.743,-7.7427,-7.7425,0,0,-7.6657,-7.6711,-7.6874,-7.6932,-7.7019,-7.7031,-7.707,-7.7143,-7.7162,-7.7341,-7.7283,-7.7393,-7.759,-7.765,-7.7706,-7.7996,-7.7945,-7.8031,-7.8186,-7.8306,-7.8339,-7.8369,-7.8473,-7.851,-7.8054,-7.8055,-7.8055,0,-7.6783,-7.6975,-7.6962,-7.7107,-7.7174,-7.7108,-7.7272,-7.7329,-7.7445,-7.7492,-7.7424,-7.7671,-7.772,-7.7941,-7.8012,-7.8059,-7.8102,-7.8023,-7.8336,-7.8365,-7.8393,-7.8492,-7.8531,-7.8065,-7.8064,-7.8063,-7.8062,0,-7.7126,-7.726,-7.738,-7.7497,-7.7577,-7.7731,-7.774,-7.7822,-7.7801,-7.7819,-7.8002,-7.8059,-7.8176,-7.8227,-7.8207,-7.8445,-7.8406,-7.8338,-7.8217,-7.8444,-7.8536,-7.8574,-7.8079,-7.8075,-7.8072,-7.807,0,0,-7.7478,-7.7586,-7.763,-7.7683,-7.7773,-7.7875,-7.8025,-7.8143,-7.8214,-7.8296,-7.842,-7.8589,-7.8527,-7.859,-7.8576,-7.8681,-7.8908,-7.8599,-7.8601,-7.8655,-7.9174,-7.9225,-7.9269,-7.8874,-7.8881,-7.8887,-7.9167,0,-7.7751,-7.8016,-7.8008,-7.8254,-7.8377,-7.8316,-7.8446,-7.8515,-7.8536,-7.8642,-7.8664,-7.8784,-7.8693,-7.8731,-7.8832,-7.8859,-7.9012,-7.8838,-7.8989,-7.8994,-7.8972,-7.9318,-7.9373,-7.9634,-7.9203,-7.9209,-7.9214,0,-7.8106,-7.8202,-7.8461,-7.8534,-7.8585,-7.8703,-7.881,-7.8913,-7.8989,-7.8996,-7.9069,-7.9037,-7.9187,-7.9063,-7.9269,-7.9151,-7.9212,-7.9234,-7.9244,-7.9258,-7.9118,-7.9341,-7.9717,-7.9757,-7.927,-7.9266,-7.9262,0,-7.8337,-7.8531,-7.8711,-7.8758,-7.8847,-7.8931,-7.8972,-7.9041,-7.9112,-7.9205,-7.9251,-7.9359,-7.9418,-7.9502,-7.95,-7.9409,-7.9709,-7.9583,-7.9718,-7.9719,-7.9785,-7.9781,-8.0176,-7.9823,-7.9823,-7.9822,-7.9821,0,-7.8643,-7.8804,-7.8816,-7.8927,-7.9105,-7.9094,-7.927,-7.9301,-7.9364,-7.9478,-7.9431,-7.9539,-7.953,-7.9639,-7.9638,-7.9809,-7.9835,-7.9845,-7.9843,-7.985,-7.9849,-7.989,-7.9872,-7.9832,-7.983,-7.9828,-7.9826,0,-7.8932,-7.8947,-7.9139,-7.9209,-7.923,-7.9358,-7.9416,-7.952,-7.9537,-7.9683,-7.9716,-7.9742,-7.9868,-7.9875,-8.0018,-8.0017,-8.0226,-8.0203,-8.0201,-8.0197,-8.0332,-8.032,-8.0768,-8.0827,-8.0435,-8.0439,-8.0442,0,-7.9127,-7.9249,-7.9333,-7.9407,-7.9454,-7.9574,-7.9647,-7.964,-7.9718,-7.9814,-7.9907,-8.0028,-8.0125,-8.0328,-8.0359,-8.0468,-8.0448,-8.0598,-8.0464,-8.0468,-8.0451,-8.0444,-8.0456,-8.0624,-8.0628,-8.0632,-8.0635,0,-7.9472,-7.9473,-7.9581,-7.9693,-7.9782,-7.9869,-7.9949,-8.0012,-8.0015,-8.0104,-8.0233,-8.0309,-8.0457,-8.0578,-8.0685,-8.0724,-8.0681,-8.0677,-8.0714,-8.0723,-8.0717,-8.0722,-8.0273,-8.0667,-8.0663,-8.0661,-8.0659,-8.0658,-7.972,-7.9826,-7.9902,-8.0024,-8.0084,-8.0161,-8.0263,-8.0293,-8.0402,-8.0523,-8.0512,-8.0655,-8.0727,-8.0867,-8.0915,-8.1025,-8.0974,-8.1028,-8.1041,-8.1055,-8.107,-8.0699,-8.1045,-8.1044,-8.1043,-8.1042,-8.1041,0,-8.0062,-8.0108,-8.0221,-8.0337,-8.0432,-8.0385,-8.0471,-8.0554,-8.0682,-8.0754,-8.0851,-8.0999,-8.1116,-8.1156,-8.127,-8.1351,-8.1333,-8.1381,-8.1375,-8.1385,-8.1109,-8.1066,-8.1393,-8.1393,-8.1393,-8.1393,-8.1393,-8.1392,-8.0252,-8.043,-8.0441,-8.0647,-8.0691,-8.0833,-8.0887,-8.0957,-8.1014,-8.1183,-8.1281,-8.1307,-8.1366,-8.1484,-8.1588,-8.1597,-8.1641,-8.1697,-8.1697,-8.1439,-8.1404,-8.137,-8.133,-8.1707,-8.1707,-8.1964,-8.1966,-8.1968]}]]